Portada
METAR-TAF:

METAR-TAF

Aeropuertos :

Aeropuerto Germán Olano

Puerto Carreño, Colombia

latitud: 06-10N, longitud: 067-30W, altitud: 55 m

Observación

El informe se hizo hace 6 horas y 46 minutos, a las 03:00 UTC
Viento calma
Temperatura 28°C
Humedad 66%
Presión 1011 hPa
Visibilidad 10 km o más
sin nubes por debajo de 1500 m y sin presencia de cumulonimbus.

METAR: SKPC 210300Z 00000KT CAVOK 28/21 A2985

Hora: 04:46 (09:46 UTC)


TAF: falta

Observaciones y pronósticos meteorológicos de más de 4000 aeropuertos (mensajes METAR y TAF).

Los puntos amarillos y rojos representan las estaciones disponibles.

Ponga el ratón en el punto deseado para ver el nombre de la estación.

Haga clic para ver las observaciones y los pronósticos meteorológicos.

Para cambiar el mapa : haga clic en los botones verdes con una cruz de color negro para hacer un zoom, en el botón verde con un guión para alejar o en las flechas verdes para mapas adyacentes.


METAR-TAF: